Stations météo

réclame
Mon MeteoGroup
Fair Isle, Grande-Bretagne (3008): Température de l'air & dewpoint: 06.12.2017 12:00:00 - 12.12.2017 12:00:00 (GMT)Fair Isle, Grande-Bretagne (3008): Température de l'air -20cm & Température de l'air -100cm: 06.12.2017 12:00:00 - 12.12.2017 12:00:00 (GMT)Fair Isle, Grande-Bretagne (3008): Vitesse du vent & gusts: 06.12.2017 12:00:00 - 12.12.2017 12:00:00 (GMT)Fair Isle, Grande-Bretagne (3008): Direction du vent: 06.12.2017 12:00:00 - 12.12.2017 12:00:00 (GMT)Fair Isle, Grande-Bretagne (3008): reduced air pressure: 06.12.2017 12:00:00 - 12.12.2017 12:00:00 (GMT)Fair Isle, Grande-Bretagne (3008): visibility: 06.12.2017 12:00:00 - 12.12.2017 12:00:00 (GMT)Fair Isle, Grande-Bretagne (3008): Quantités de précipitations: 06.12.2017 12:00:00 - 12.12.2017 12:00:00 (GMT)
Date & Time tt [°C] td [°C] tt -20cm [°C] tt -100cm [°C] ff [km/h] ff [knt] fx [km/h] fx [knt] dd ppp [hPa] vv [km] rr [mm]
12.12.2017 12:00:00 - - - - - - - - - - - -
12.12.2017 11:00:00 4,1 -0,9 - - 2 1 - - WSW 997,8 30 0,0
12.12.2017 10:00:00 3,4 -0,6 - - 4 2 - - NNW 997,7 35 0,0
12.12.2017 09:00:00 1,6 -1,4 5,5 6,9 9 5 - - NNW 997,7 35 0,0
12.12.2017 08:00:00 3,0 0,2 - - 9 5 - - NNW 997,8 26 0,0
12.12.2017 07:00:00 2,7 -0,1 - - 11 6 - - NNW - - 0,0
12.12.2017 06:00:00 3,2 0,0 - - 15 8 - - N 997,2 40 0,0
12.12.2017 05:00:00 4,3 1,4 - - 18 10 - - N 997,2 50 0,0
12.12.2017 04:00:00 3,3 0,9 - - 18 10 - - NNE 997,1 50 0,2
12.12.2017 03:00:00 4,0 2,1 - - 24 13 - - N 996,8 30 0,4
12.12.2017 02:00:00 4,0 2,0 - - 16 9 - - N 996,2 45 0,0
12.12.2017 01:00:00 3,8 1,6 - - 15 8 - - N 995,6 50 0,0
12.12.2017 00:00:00 3,7 1,8 - - 15 8 - - N 995,1 50 0,0
11.12.2017 23:00:00 4,1 2,3 - - 18 10 - - N 994,6 50 0,0
11.12.2017 22:00:00 3,2 1,1 - - 11 6 - - NNW 994,5 40 0,0
11.12.2017 21:00:00 4,0 2,2 - - 13 7 - - NNW 994,4 27 0,0
11.12.2017 20:00:00 3,8 2,1 - - 9 5 - - NW 994,3 28 0,2
11.12.2017 19:00:00 3,3 1,8 - - 21 11 - - W 994,1 24 0,2
11.12.2017 18:00:00 3,7 1,4 - - 16 9 - - WNW 993,9 30 0,2
11.12.2017 17:00:00 3,8 1,3 - - 24 13 46 25 NNW 993,8 35 0,2
11.12.2017 16:00:00 4,3 0,1 - - 15 8 - - NW 993,2 50 0,0
11.12.2017 15:00:00 4,1 0,7 - - 18 10 - - WNW 992,7 40 0,0
11.12.2017 14:00:00 4,0 0,6 - - 18 10 - - NNW 992,1 45 0,0
11.12.2017 13:00:00 4,7 0,3 - - 16 9 - - N 991,6 40 0,0
11.12.2017 12:00:00 4,4 -0,3 - - 15 8 - - N 991,1 45 0,0
11.12.2017 11:00:00 4,0 -0,3 - - 18 10 - - N 990,4 40 0,0
11.12.2017 10:00:00 3,7 1,3 - - 13 7 - - N 989,5 45 0,0
11.12.2017 09:00:00 3,2 0,5 5,7 7,0 21 11 - - NE 988,6 50 0,0
11.12.2017 08:00:00 3,0 0,4 - - 18 10 - - NNE 987,9 50 0,0
11.12.2017 07:00:00 2,3 -0,6 - - 15 8 - - N 986,5 40 -
11.12.2017 06:00:00 2,3 -0,4 - - 13 7 - - N - 40 0,0
11.12.2017 05:00:00 1,7 -1,1 - - 9 5 - - NNE 984,6 40 0,0
11.12.2017 04:00:00 2,2 -0,2 - - 11 6 - - N 983,8 50 0,0
11.12.2017 03:00:00 1,9 -0,3 - - 11 6 - - N 983,0 45 0,0
11.12.2017 02:00:00 1,6 -0,3 - - 11 6 - - N 982,0 40 0,0
11.12.2017 01:00:00 1,5 -0,2 - - 11 6 - - N 981,5 40 0,0
11.12.2017 00:00:00 2,3 0,5 - - 9 5 - - N 980,7 50 0,0
10.12.2017 23:00:00 1,6 -0,1 - - 9 5 - - N 980,2 50 0,0
10.12.2017 22:00:00 2,5 0,6 - - 5 3 - - NE 979,4 45 0,0
10.12.2017 21:00:00 1,3 -0,2 - - 8 4 - - N 978,9 40 0,0
10.12.2017 20:00:00 1,2 -0,4 - - 8 4 - - NNE 978,3 26 0,0
10.12.2017 19:00:00 2,1 0,7 - - 11 6 - - NNE 977,8 45 0,0
10.12.2017 18:00:00 2,0 0,6 - - 8 4 - - N 977,4 18 0,4
10.12.2017 17:00:00 2,6 1,2 - - 2 1 - - WNW 977,0 17 0,4
10.12.2017 16:00:00 2,6 0,9 - - 11 6 - - N 976,6 30 0,0
10.12.2017 15:00:00 2,4 0,8 - - 5 3 - - NNE 976,6 8 0,0
10.12.2017 14:00:00 3,0 1,6 - - 11 6 - - N 976,8 30 0,0
10.12.2017 13:00:00 2,5 0,9 - - 5 3 - - N 977,2 29 0,8
10.12.2017 12:00:00 3,7 1,0 - - 15 8 - - NW 977,7 27 0,0
10.12.2017 11:00:00 3,4 1,2 - - 18 10 - - WNW 978,3 40 0,0
10.12.2017 10:00:00 3,2 1,1 - - 26 14 - - WNW 979,2 40 0,0
10.12.2017 09:00:00 3,4 1,0 6,0 7,2 26 14 - - WNW 980,0 25 0,0
10.12.2017 08:00:00 3,0 0,8 - - 22 12 - - WNW 980,9 27 0,0
10.12.2017 07:00:00 2,9 1,3 - - 26 14 48 26 WNW - 35 0,2
10.12.2017 06:00:00 3,0 0,5 - - 29 16 50 27 WNW 983,0 20 0,0
10.12.2017 05:00:00 1,8 0,5 - - 31 17 57 31 WNW 984,5 24 0,0
10.12.2017 04:00:00 2,4 1,1 - - 29 16 55 30 WNW 985,7 30 0,0
10.12.2017 03:00:00 1,9 0,5 - - 37 20 61 33 W 986,9 9 0,2
10.12.2017 02:00:00 1,9 0,0 - - 39 21 61 33 WNW 988,6 10 0,0
10.12.2017 01:00:00 1,6 0,3 - - 29 16 57 31 W 990,0 16 0,6
10.12.2017 00:00:00 2,4 -0,9 - - 35 19 54 29 WNW 991,1 29 0,0
09.12.2017 23:00:00 2,0 -1,4 - - 31 17 55 30 W 992,4 27 0,0
09.12.2017 22:00:00 2,1 -1,7 - - 34 18 63 34 WNW 993,8 30 0,0
09.12.2017 21:00:00 2,5 -2,2 - - 28 15 55 30 NW 994,7 30 0,0
09.12.2017 20:00:00 1,4 -2,5 - - 34 18 59 32 NW 996,2 28 0,4
09.12.2017 19:00:00 0,8 -2,0 - - 35 19 57 31 WNW 997,1 11 0,0
09.12.2017 18:00:00 0,8 -1,7 - - 42 23 72 39 NNW 997,9 1,7 0,0
09.12.2017 17:00:00 2,0 -3,9 - - 41 22 67 36 WNW 998,6 29 0,0
09.12.2017 16:00:00 1,6 -2,2 - - 39 21 70 38 WNW 999,6 19 0,0
09.12.2017 15:00:00 0,9 -0,6 - - 34 18 65 35 NNW 1000,4 19 0,0
09.12.2017 14:00:00 1,0 -2,3 - - 39 21 63 34 NW 1001,3 19 0,0
09.12.2017 13:00:00 1,1 -1,5 - - 35 19 67 36 NNW 1002,1 19 0,0
09.12.2017 12:00:00 -0,1 -1,2 - - 35 19 63 34 NNW 1003,1 15 0,0
09.12.2017 11:00:00 0,6 -2,6 - - 37 20 63 34 NNW 1003,8 24 0,0
09.12.2017 10:00:00 1,8 -3,8 - - 35 19 76 41 NW 1004,3 25 0,0
09.12.2017 09:00:00 0,5 -1,1 6,5 7,4 29 16 81 44 NW 1005,1 7 0,0
09.12.2017 08:00:00 1,1 -1,0 - - 31 17 78 42 NNW 1005,2 19 0,0
09.12.2017 07:00:00 0,8 -2,2 - - 41 22 68 37 NNW - - 0,0
09.12.2017 06:00:00 1,3 -2,6 - - 41 22 81 44 NW - 20 0,2
09.12.2017 05:00:00 1,8 -1,8 - - 29 16 78 42 NW 1006,1 17 0,0
09.12.2017 04:00:00 0,8 -1,5 - - 52 28 91 49 NNW 1006,6 18 0,0
09.12.2017 03:00:00 1,7 -2,2 - - 48 26 78 42 WNW 1006,9 10 0,0
09.12.2017 02:00:00 3,2 -3,8 - - 46 25 76 41 NW 1006,8 - 0,0
09.12.2017 01:00:00 2,7 -2,6 - - 42 23 83 45 NNW 1006,9 27 0,0
09.12.2017 00:00:00 3,7 -3,5 - - 50 27 87 47 NNW 1006,8 - 0,0
08.12.2017 23:00:00 4,1 -3,8 - - 52 28 83 45 NNW 1006,6 - 0,0
08.12.2017 22:00:00 3,4 -2,3 - - 52 28 78 42 NNW 1006,4 45 0,0
08.12.2017 21:00:00 4,0 -1,8 - - 46 25 80 43 NNW 1006,1 15 0,0
08.12.2017 20:00:00 4,9 -3,8 - - 48 26 78 42 NNW 1005,6 - 0,0
08.12.2017 19:00:00 4,6 -1,9 - - 42 23 89 48 NNW 1005,2 18 0,0
08.12.2017 18:00:00 4,9 -0,2 - - 52 28 96 52 NNW 1003,9 10 0,0
08.12.2017 17:00:00 4,8 1,4 - - 55 30 80 43 NNW 1002,4 11 0,0
08.12.2017 16:00:00 4,9 2,2 - - 46 25 87 47 NNW 1001,2 11 0,2
08.12.2017 15:00:00 3,6 2,3 - - 50 27 83 45 NNW 1000,4 10 0,0
08.12.2017 14:00:00 2,6 2,3 - - 50 27 102 55 NNW 999,8 7 2,2
08.12.2017 13:00:00 4,2 0,8 - - 55 30 109 59 NNW 998,8 8 0,0
08.12.2017 12:00:00 4,1 0,6 - - 52 28 104 56 NW 998,3 8 0,4
08.12.2017 11:00:00 2,0 0,7 - - 52 28 93 50 NW 998,7 5 0,6
08.12.2017 10:00:00 1,3 0,0 - - 42 23 91 49 NW 999,0 6 0,2
08.12.2017 09:00:00 1,7 -2,7 7,2 7,5 61 33 98 53 NNW 998,7 3,0 0,0
08.12.2017 08:00:00 3,2 -2,8 - - 44 24 94 51 NW 998,3 - 0,0
08.12.2017 07:00:00 3,1 -5,3 - - 57 31 102 55 NW - - 0,0
08.12.2017 06:00:00 3,3 -4,1 - - 65 35 120 65 NW 996,6 10 0,0
08.12.2017 05:00:00 3,6 -2,0 - - 65 35 106 57 NNW 995,2 11 0,0
08.12.2017 04:00:00 3,6 -3,3 - - 67 36 109 59 NNW 993,9 12 0,0
08.12.2017 03:00:00 3,8 -0,7 - - 61 33 89 48 NNW 993,0 8 1,0
08.12.2017 02:00:00 3,5 0,7 - - 52 28 102 55 WNW 992,9 12 0,0
08.12.2017 01:00:00 2,7 0,4 - - 55 30 104 56 WNW 992,6 9 0,0
08.12.2017 00:00:00 3,5 -3,3 - - 52 28 94 51 WNW 992,0 13 0,0
07.12.2017 23:00:00 3,3 -2,1 - - 48 26 104 56 NW 991,3 7 0,2
07.12.2017 22:00:00 2,7 -0,4 - - 59 32 139 75 NW 990,4 7 0,0
07.12.2017 21:00:00 3,8 -1,9 - - 54 29 113 61 NW 989,4 4,3 0,0
07.12.2017 20:00:00 4,1 -0,2 - - 52 28 104 56 NW 987,9 8 0,0
07.12.2017 19:00:00 3,5 0,4 - - 65 35 115 62 NW 986,4 4,2 0,2
07.12.2017 18:00:00 4,2 0,9 - - 67 36 113 61 NW 983,9 6 0,2
07.12.2017 17:00:00 4,3 1,4 - - 67 36 126 68 WNW 981,5 3,5 0,2
07.12.2017 16:00:00 4,5 2,5 - - 78 42 150 81 WNW 977,7 3,0 0,2
07.12.2017 15:00:00 4,4 2,7 - - 74 40 126 68 WNW 973,8 2,6 1,0
07.12.2017 14:00:00 5,4 3,3 - - 54 29 98 53 NW 970,4 5 0,2
07.12.2017 13:00:00 6,2 2,2 - - 48 26 80 43 W 968,5 14 0,2
07.12.2017 12:00:00 6,2 2,2 - - 59 32 85 46 W 966,4 16 0,0
07.12.2017 11:00:00 6,5 4,1 - - 55 30 87 47 W 965,1 9 0,2
07.12.2017 10:00:00 5,9 5,1 - - 68 37 111 60 SW 964,1 4,9 0,2
07.12.2017 09:00:00 6,3 3,0 7,5 7,4 72 39 109 59 SW 967,8 9 0,2
07.12.2017 08:00:00 6,8 3,4 - - 63 34 85 46 SSW 970,6 12 0,0
07.12.2017 07:00:00 6,8 2,1 - - 63 34 87 47 SSW 973,3 10 0,0
07.12.2017 06:00:00 6,4 1,6 - - 48 26 85 46 SSW 976,3 13 0,0
07.12.2017 05:00:00 6,6 1,6 - - 57 31 80 43 WSW 978,3 12 0,0
07.12.2017 04:00:00 7,9 7,1 - - 46 25 65 35 WSW 979,0 9 0,2
07.12.2017 03:00:00 9,6 9,1 - - 50 27 78 42 SSW 979,1 5 0,6
07.12.2017 02:00:00 10,0 9,1 - - 54 29 78 42 S 980,1 9 0,2
07.12.2017 01:00:00 10,2 8,8 - - 55 30 76 41 S 982,0 9 0,0
07.12.2017 00:00:00 10,6 8,6 - - 57 31 74 40 S 984,2 11 0,0
06.12.2017 23:00:00 10,3 8,5 - - 52 28 63 34 S 986,4 11 0,0
06.12.2017 22:00:00 10,2 8,4 - - 42 23 61 33 SSW 988,7 11 0,0
06.12.2017 21:00:00 9,9 8,8 - - 41 22 59 32 SSW 990,9 10 1,6
06.12.2017 20:00:00 9,8 8,5 - - 44 24 65 35 SSW 992,6 7 0,2
06.12.2017 19:00:00 9,9 8,5 - - 42 23 59 32 SSW 993,8 11 0,0
06.12.2017 18:00:00 9,5 8,2 - - 41 22 57 31 SSW 995,4 9 0,0
06.12.2017 17:00:00 9,5 8,2 - - 37 20 55 30 SSW 997,2 11 0,0
06.12.2017 16:00:00 9,4 8,0 - - 41 22 57 31 SSW 998,3 11 0,0
06.12.2017 15:00:00 9,4 7,9 - - 41 22 55 30 SSW 999,6 13 0,0
06.12.2017 14:00:00 9,3 8,3 - - 41 22 57 31 SSW 1001,0 14 0,8
06.12.2017 13:00:00 9,0 8,4 - - 37 20 48 26 SSW 1002,7 6 1,0
06.12.2017 12:00:00 9,0 8,4 - - 31 17 - - SSW 1004,1 6 0,8

tt = Température de l'air
td = dewpoint
tt -20cm = Température de l'air -20cm
tt -100cm = Température de l'air -100cm
ff = Vitesse du vent
fx = gusts
dd = Direction du vent
ppp = reduced air pressure
vv = visibility
rr = Quantités de précipitations

stations d'obs. à proximité